VHCWO YSSY-YMML

Flight info

Callsign VHCWO
Flight time 0h 59m
Altitude 40000
Route ABBEY3 WOL H65 LEECE Q29 ML DCT
Aircraft C750/M-SBDE3FGHRWXY/S

Departure

Time 2026-04-24 12:20
Airport Sydney Kingsford Smith International Airport (YSSY)

Arrival

Time 2026-04-24 13:19
Airport Melbourne Airport (YMML)
Time Latitude Longitude Altitude Speed Heading
2026-04-24 11:33 -33.93383 151.18991 27 ft 0 kts 32°
2026-04-24 12:05 -33.93386 151.18988 27 ft 4 kts 31°
2026-04-24 12:05 -33.93388 151.18987 27 ft 0 kts 31°
2026-04-24 12:08 -33.93388 151.18986 27 ft 0 kts 24°
2026-04-24 12:08 -33.93384 151.18984 27 ft 1 kts 340°
2026-04-24 12:08 -33.93382 151.18955 27 ft 7 kts 259°
2026-04-24 12:08 -33.93425 151.18885 27 ft 14 kts 210°
2026-04-24 12:09 -33.93495 151.18858 27 ft 0 kts 193°
2026-04-24 12:09 -33.93503 151.18856 27 ft 4 kts 191°
2026-04-24 12:09 -33.93543 151.18850 27 ft 0 kts 189°
2026-04-24 12:09 -33.93550 151.18849 27 ft 4 kts 189°
2026-04-24 12:10 -33.93596 151.18808 27 ft 13 kts 240°
2026-04-24 12:10 -33.93632 151.18665 27 ft 22 kts 256°
2026-04-24 12:10 -33.93649 151.18588 27 ft 0 kts 252°
2026-04-24 12:11 -33.93673 151.18491 27 ft 12 kts 254°
2026-04-24 12:11 -33.93701 151.18369 27 ft 18 kts 255°
2026-04-24 12:11 -33.93724 151.18272 27 ft 12 kts 253°
2026-04-24 12:11 -33.93746 151.18182 27 ft 10 kts 253°
2026-04-24 12:12 -33.93764 151.18108 27 ft 7 kts 254°
2026-04-24 12:12 -33.93769 151.18083 27 ft 3 kts 255°
2026-04-24 12:12 -33.93781 151.18032 27 ft 9 kts 255°
2026-04-24 12:12 -33.93803 151.17929 24 ft 17 kts 253°
2026-04-24 12:13 -33.93832 151.17815 19 ft 0 kts 253°
2026-04-24 12:13 -33.93839 151.17785 18 ft 8 kts 253°
2026-04-24 12:13 -33.93863 151.17685 15 ft 16 kts 253°
2026-04-24 12:13 -33.93810 151.17582 15 ft 15 kts 353°
2026-04-24 12:14 -33.93710 151.17562 14 ft 11 kts 347°
2026-04-24 12:14 -33.93650 151.17546 14 ft 10 kts 348°
2026-04-24 12:14 -33.93580 151.17528 14 ft 8 kts 348°
2026-04-24 12:14 -33.93533 151.17516 15 ft 8 kts 346°
2026-04-24 12:15 -33.93506 151.17508 16 ft 2 kts 348°
2026-04-24 12:15 -33.93484 151.17503 16 ft 4 kts 349°
2026-04-24 12:15 -33.93445 151.17501 17 ft 7 kts
2026-04-24 12:15 -33.93397 151.17491 17 ft 9 kts 311°
2026-04-24 12:16 -33.93394 151.17425 17 ft 1 kts 258°
2026-04-24 12:16 -33.93397 151.17408 16 ft 4 kts 258°
2026-04-24 12:16 -33.93409 151.17340 14 ft 13 kts 258°
2026-04-24 12:16 -33.93463 151.17295 12 ft 0 kts 171°
2026-04-24 12:19 -33.93797 151.17381 13 ft 109 kts 168°
2026-04-24 12:19 -33.94720 151.17616 304 ft 145 kts 169°
2026-04-24 12:20 -33.95779 151.17823 808 ft 169 kts 178°
2026-04-24 12:20 -33.97067 151.17748 1207 ft 201 kts 182°
2026-04-24 12:20 -33.98562 151.17672 1627 ft 229 kts 181°
2026-04-24 12:20 -34.00273 151.17605 2053 ft 258 kts 181°
2026-04-24 12:21 -34.02072 151.17533 2453 ft 258 kts 180°
2026-04-24 12:21 -34.03826 151.17837 2996 ft 256 kts 164°
2026-04-24 12:21 -34.05558 151.18449 3638 ft 262 kts 162°
2026-04-24 12:21 -34.07316 151.19065 4270 ft 265 kts 163°
2026-04-24 12:22 -34.09093 151.19647 5043 ft 263 kts 163°
2026-04-24 12:22 -34.10275 151.20033 5632 ft 268 kts 163°
2026-04-24 12:22 -34.12092 151.20638 6500 ft 274 kts 162°
2026-04-24 12:22 -34.14578 151.21472 7652 ft 280 kts 162°
2026-04-24 12:23 -34.15827 151.21889 8215 ft 282 kts 162°
2026-04-24 12:23 -34.17724 151.22500 9076 ft 283 kts 165°
2026-04-24 12:23 -34.19714 151.22445 9815 ft 292 kts 193°
2026-04-24 12:23 -34.21515 151.21297 10597 ft 300 kts 218°
2026-04-24 12:24 -34.23391 151.18791 11735 ft 305 kts 229°
2026-04-24 12:24 -34.24297 151.17477 12335 ft 307 kts 229°
2026-04-24 12:24 -34.25707 151.15475 13267 ft 310 kts 228°
2026-04-24 12:24 -34.27112 151.13524 14180 ft 313 kts 227°
2026-04-24 12:25 -34.28550 151.11511 14945 ft 319 kts 228°
2026-04-24 12:25 -34.30017 151.09435 15545 ft 330 kts 228°
2026-04-24 12:25 -34.31529 151.07298 16154 ft 340 kts 228°
2026-04-24 12:25 -34.33087 151.05104 16776 ft 346 kts 228°
2026-04-24 12:26 -34.34662 151.02882 17414 ft 350 kts 228°
2026-04-24 12:26 -34.36256 151.00631 18070 ft 354 kts 228°
2026-04-24 12:26 -34.37959 150.98456 18695 ft 358 kts 221°
2026-04-24 12:26 -34.39847 150.96441 19300 ft 367 kts 220°
2026-04-24 12:27 -34.41783 150.94363 19905 ft 375 kts 220°
2026-04-24 12:27 -34.43746 150.92218 20525 ft 384 kts 220°
2026-04-24 12:27 -34.45746 150.90037 21155 ft 391 kts 220°
2026-04-24 12:27 -34.47767 150.87851 21787 ft 397 kts 220°
2026-04-24 12:28 -34.49847 150.85599 22437 ft 403 kts 220°
2026-04-24 12:28 -34.51948 150.83311 23100 ft 408 kts 220°
2026-04-24 12:28 -34.54068 150.81002 23776 ft 412 kts 220°
2026-04-24 12:28 -34.56157 150.78514 24359 ft 418 kts 227°
2026-04-24 12:29 -34.57893 150.75649 24924 ft 422 kts 232°
2026-04-24 12:29 -34.59623 150.72752 25520 ft 425 kts 231°
2026-04-24 12:29 -34.61387 150.69864 26128 ft 427 kts 231°
2026-04-24 12:29 -34.63138 150.66982 26739 ft 430 kts 231°
2026-04-24 12:30 -34.64900 150.64034 27368 ft 432 kts 231°
2026-04-24 12:30 -34.66673 150.61070 28002 ft 434 kts 230°
2026-04-24 12:30 -34.68417 150.58178 28634 ft 436 kts 230°
2026-04-24 12:30 -34.70121 150.55351 29261 ft 438 kts 230°
2026-04-24 12:31 -34.71921 150.52346 29943 ft 440 kts 230°
2026-04-24 12:31 -34.73722 150.49334 30628 ft 442 kts 230°
2026-04-24 12:31 -34.75532 150.46315 31213 ft 442 kts 230°
2026-04-24 12:31 -34.77345 150.43288 31820 ft 443 kts 230°
2026-04-24 12:32 -34.79159 150.40255 32435 ft 443 kts 230°
2026-04-24 12:32 -34.80973 150.37215 33060 ft 443 kts 230°
2026-04-24 12:32 -34.82782 150.34184 33711 ft 443 kts 229°
2026-04-24 12:32 -34.84596 150.31144 34376 ft 442 kts 229°
2026-04-24 12:33 -34.86410 150.28099 34967 ft 442 kts 229°
2026-04-24 12:33 -34.88195 150.25100 35547 ft 441 kts 229°
2026-04-24 12:33 -34.89994 150.22077 36145 ft 439 kts 230°
2026-04-24 12:33 -34.91783 150.19066 36752 ft 438 kts 230°
2026-04-24 12:34 -34.93572 150.16055 37375 ft 437 kts 230°
2026-04-24 12:34 -34.95352 150.13053 38023 ft 435 kts 230°
2026-04-24 12:34 -34.97122 150.10067 38684 ft 432 kts 230°
2026-04-24 12:34 -34.98877 150.07104 39325 ft 429 kts 230°
2026-04-24 12:35 -35.00611 150.04175 39888 ft 426 kts 230°
2026-04-24 12:35 -35.02330 150.01269 40415 ft 424 kts 230°
2026-04-24 12:35 -35.04070 149.98328 40507 ft 434 kts 231°
2026-04-24 12:35 -35.05864 149.95295 40518 ft 445 kts 231°
2026-04-24 12:36 -35.07695 149.92189 40526 ft 456 kts 231°
2026-04-24 12:36 -35.11476 149.85769 40533 ft 475 kts 231°
2026-04-24 12:37 -35.15392 149.79111 40534 ft 488 kts 231°
2026-04-24 12:37 -35.19380 149.72314 40534 ft 494 kts 232°
2026-04-24 12:38 -35.23391 149.65469 40530 ft 501 kts 232°
2026-04-24 12:38 -35.27464 149.58502 40539 ft 504 kts 232°
2026-04-24 12:39 -35.35593 149.44557 40537 ft 504 kts 232°
2026-04-24 12:40 -35.39656 149.37567 40537 ft 504 kts 232°
2026-04-24 12:40 -35.43606 149.30758 40535 ft 504 kts 232°
2026-04-24 12:41 -35.47672 149.23734 40539 ft 504 kts 233°
2026-04-24 12:41 -35.51730 149.16712 40540 ft 504 kts 233°
2026-04-24 12:42 -35.55760 149.09721 40543 ft 504 kts 233°
2026-04-24 12:42 -35.59821 149.02665 40554 ft 504 kts 233°
2026-04-24 12:43 -35.63844 148.95660 40555 ft 504 kts 233°
2026-04-24 12:43 -35.67896 148.88590 40555 ft 505 kts 233°
2026-04-24 12:44 -35.71949 148.81503 40559 ft 505 kts 233°
2026-04-24 12:44 -35.75961 148.74475 40554 ft 505 kts 233°
2026-04-24 12:45 -35.79993 148.67397 40553 ft 504 kts 233°
2026-04-24 12:45 -35.84021 148.60311 40552 ft 505 kts 233°
2026-04-24 12:46 -35.88048 148.53213 40546 ft 505 kts 233°
2026-04-24 12:46 -35.92055 148.46110 40540 ft 504 kts 234°
2026-04-24 12:47 -35.96061 148.38986 40538 ft 504 kts 234°
2026-04-24 12:47 -36.00060 148.31872 40539 ft 504 kts 234°
2026-04-24 12:48 -36.04057 148.24735 40532 ft 504 kts 234°
2026-04-24 12:48 -36.08045 148.17608 40522 ft 504 kts 234°
2026-04-24 12:49 -36.12006 148.10510 40517 ft 504 kts 234°
2026-04-24 12:49 -36.16240 148.02946 40515 ft 504 kts 234°
2026-04-24 12:50 -36.19554 147.97011 40519 ft 504 kts 234°
2026-04-24 12:50 -36.23540 147.89853 40509 ft 504 kts 234°
2026-04-24 12:51 -36.27521 147.82697 40506 ft 504 kts 234°
2026-04-24 12:51 -36.31493 147.75539 40504 ft 504 kts 235°
2026-04-24 12:52 -36.35438 147.68410 40509 ft 504 kts 235°
2026-04-24 12:52 -36.40073 147.59993 40507 ft 504 kts 235°
2026-04-24 12:53 -36.43389 147.53968 40513 ft 504 kts 235°
2026-04-24 12:53 -36.47319 147.46806 40128 ft 507 kts 235°
2026-04-24 12:53 -36.49310 147.43175 39601 ft 508 kts 236°
2026-04-24 12:54 -36.51301 147.39540 39057 ft 508 kts 236°
2026-04-24 12:54 -36.53275 147.35931 38496 ft 500 kts 236°
2026-04-24 12:54 -36.55224 147.32361 37981 ft 496 kts 236°
2026-04-24 12:55 -36.61514 147.20824 36322 ft 500 kts 236°
2026-04-24 12:55 -36.63444 147.17275 35809 ft 501 kts 235°
2026-04-24 12:55 -36.65405 147.13665 35303 ft 503 kts 235°
2026-04-24 12:56 -36.67368 147.10048 34776 ft 505 kts 235°
2026-04-24 12:56 -36.69340 147.06412 34153 ft 507 kts 235°
2026-04-24 12:56 -36.71317 147.02764 33626 ft 507 kts 235°
2026-04-24 12:56 -36.73268 146.99156 33107 ft 509 kts 235°
2026-04-24 12:57 -36.75274 146.95444 32571 ft 510 kts 236°
2026-04-24 12:57 -36.77236 146.91810 32055 ft 512 kts 236°
2026-04-24 12:57 -36.79228 146.88116 31517 ft 511 kts 236°
2026-04-24 12:57 -36.81183 146.84485 30986 ft 504 kts 236°
2026-04-24 12:58 -36.83158 146.80814 30453 ft 514 kts 236°
2026-04-24 12:58 -36.85168 146.77077 29898 ft 520 kts 236°
2026-04-24 12:58 -36.87166 146.73355 29358 ft 511 kts 236°
2026-04-24 12:58 -36.89118 146.69714 28833 ft 511 kts 236°
2026-04-24 12:59 -36.91116 146.65985 28299 ft 506 kts 236°
2026-04-24 12:59 -36.93055 146.62362 27776 ft 504 kts 236°
2026-04-24 12:59 -36.95001 146.58722 27262 ft 506 kts 236°
2026-04-24 12:59 -36.96951 146.55070 26734 ft 499 kts 236°
2026-04-24 13:00 -36.98870 146.51474 26215 ft 491 kts 236°
2026-04-24 13:00 -37.00769 146.47910 25711 ft 493 kts 237°
2026-04-24 13:00 -37.02671 146.44334 25204 ft 488 kts 237°
2026-04-24 13:00 -37.04533 146.40833 24702 ft 480 kts 237°
2026-04-24 13:01 -37.06365 146.37383 24210 ft 482 kts 237°
2026-04-24 13:01 -37.07620 146.35018 23840 ft 484 kts 237°
2026-04-24 13:01 -37.10077 146.30385 23167 ft 471 kts 237°
2026-04-24 13:01 -37.11880 146.26980 22677 ft 467 kts 237°
2026-04-24 13:02 -37.13677 146.23580 22200 ft 471 kts 237°
2026-04-24 13:02 -37.15493 146.20143 21714 ft 474 kts 237°
2026-04-24 13:02 -37.16690 146.17877 21387 ft 465 kts 237°
2026-04-24 13:02 -37.19036 146.13435 20750 ft 456 kts 237°
2026-04-24 13:03 -37.20788 146.10104 20281 ft 460 kts 237°
2026-04-24 13:03 -37.22554 146.06748 19803 ft 462 kts 237°
2026-04-24 13:03 -37.23725 146.04522 19493 ft 457 kts 237°
2026-04-24 13:03 -37.25457 146.01230 19012 ft 446 kts 237°
2026-04-24 13:04 -37.27728 145.96900 18370 ft 448 kts 238°
2026-04-24 13:04 -37.29400 145.93708 17910 ft 449 kts 237°
2026-04-24 13:04 -37.30562 145.91489 17603 ft 450 kts 237°
2026-04-24 13:04 -37.32263 145.88247 17140 ft 440 kts 237°
2026-04-24 13:05 -37.33947 145.85052 16682 ft 430 kts 237°
2026-04-24 13:05 -37.35574 145.81952 16247 ft 432 kts 237°
2026-04-24 13:05 -37.37233 145.78779 15799 ft 435 kts 237°
2026-04-24 13:05 -37.38901 145.75591 15347 ft 436 kts 237°
2026-04-24 13:06 -37.40571 145.72402 14891 ft 436 kts 237°
2026-04-24 13:06 -37.42191 145.69307 14448 ft 418 kts 237°
2026-04-24 13:06 -37.43786 145.66249 13992 ft 419 kts 237°
2026-04-24 13:06 -37.45411 145.63208 13543 ft 419 kts 235°
2026-04-24 13:07 -37.47166 145.60266 13118 ft 422 kts 234°
2026-04-24 13:07 -37.48881 145.57272 12683 ft 422 kts 236°
2026-04-24 13:07 -37.50594 145.54258 12238 ft 422 kts 236°
2026-04-24 13:07 -37.52283 145.51366 11813 ft 421 kts 235°
2026-04-24 13:08 -37.53997 145.48462 11378 ft 398 kts 236°
2026-04-24 13:08 -37.55596 145.45705 10972 ft 389 kts 236°
2026-04-24 13:08 -37.57200 145.42900 10568 ft 396 kts 237°
2026-04-24 13:09 -37.60377 145.37433 9731 ft 363 kts 236°
2026-04-24 13:09 -37.61811 145.34962 9358 ft 336 kts 237°
2026-04-24 13:09 -37.63135 145.32657 9019 ft 312 kts 237°
2026-04-24 13:09 -37.64353 145.30539 8673 ft 293 kts 237°
2026-04-24 13:10 -37.65525 145.28509 8338 ft 281 kts 236°
2026-04-24 13:10 -37.66665 145.26530 8031 ft 276 kts 236°
2026-04-24 13:10 -37.67792 145.24572 7744 ft 275 kts 236°
2026-04-24 13:10 -37.68917 145.22616 7471 ft 276 kts 236°
2026-04-24 13:11 -37.70035 145.20674 7203 ft 276 kts 236°
2026-04-24 13:11 -37.71166 145.18709 6930 ft 277 kts 236°
2026-04-24 13:11 -37.72311 145.16716 6637 ft 276 kts 236°
2026-04-24 13:11 -37.73426 145.14776 6113 ft 277 kts 236°
2026-04-24 13:12 -37.74533 145.12850 5705 ft 266 kts 236°
2026-04-24 13:12 -37.75583 145.11024 5411 ft 245 kts 236°
2026-04-24 13:12 -37.76559 145.09321 5141 ft 235 kts 236°
2026-04-24 13:12 -37.77513 145.07653 4897 ft 234 kts 237°
2026-04-24 13:13 -37.78473 145.05973 4666 ft 238 kts 237°
2026-04-24 13:13 -37.79456 145.04256 4443 ft 243 kts 238°
2026-04-24 13:13 -37.80453 145.02516 4211 ft 245 kts 238°
2026-04-24 13:13 -37.81366 145.00712 3914 ft 241 kts 250°
2026-04-24 13:14 -37.81750 144.98729 3693 ft 222 kts 264°
2026-04-24 13:14 -37.82057 144.96914 3500 ft 201 kts 263°
2026-04-24 13:14 -37.82355 144.95253 3323 ft 187 kts 264°
2026-04-24 13:14 -37.82595 144.93664 3148 ft 182 kts 269°
2026-04-24 13:15 -37.82778 144.92072 2983 ft 185 kts 268°
2026-04-24 13:15 -37.82985 144.90474 2810 ft 188 kts 268°
2026-04-24 13:15 -37.83023 144.88851 2583 ft 182 kts 289°
2026-04-24 13:15 -37.82469 144.87490 2476 ft 170 kts 314°
2026-04-24 13:16 -37.81552 144.86637 2489 ft 161 kts 338°
2026-04-24 13:16 -37.80466 144.86330 2514 ft 162 kts 352°
2026-04-24 13:16 -37.79350 144.86153 2548 ft 158 kts 353°
2026-04-24 13:16 -37.78295 144.85972 2543 ft 149 kts 352°
2026-04-24 13:17 -37.77249 144.85778 2285 ft 155 kts 351°
2026-04-24 13:17 -37.76162 144.85534 1986 ft 160 kts 351°
2026-04-24 13:17 -37.75124 144.85318 1699 ft 143 kts 352°
2026-04-24 13:17 -37.74182 144.85147 1427 ft 134 kts 353°
2026-04-24 13:18 -37.73261 144.84954 1117 ft 133 kts 352°
2026-04-24 13:18 -37.72347 144.84796 909 ft 133 kts 353°
2026-04-24 13:18 -37.71430 144.84646 763 ft 131 kts 352°
2026-04-24 13:18 -37.70532 144.84474 646 ft 131 kts 351°
2026-04-24 13:19 -37.69623 144.84292 543 ft 132 kts 353°
2026-04-24 13:19 -37.68729 144.84124 443 ft 130 kts 353°
2026-04-24 13:19 -37.67877 144.83969 370 ft 114 kts 353°
2026-04-24 13:19 -37.67248 144.83850 384 ft 44 kts 350°
2026-04-24 13:20 -37.67009 144.83843 391 ft 32 kts 12°
2026-04-24 13:20 -37.66815 144.83925 394 ft 24 kts 28°
2026-04-24 13:20 -37.66860 144.83996 392 ft 15 kts 172°
2026-04-24 13:20 -37.66971 144.84017 389 ft 17 kts 171°
2026-04-24 13:21 -37.67125 144.84047 384 ft 34 kts 172°
2026-04-24 13:21 -37.67444 144.84103 373 ft 55 kts 171°
2026-04-24 13:21 -37.67784 144.84172 366 ft 28 kts 170°
2026-04-24 13:21 -37.67861 144.84319 363 ft 22 kts 115°
2026-04-24 13:22 -37.68013 144.84417 360 ft 31 kts 171°
2026-04-24 13:22 -37.68261 144.84466 352 ft 30 kts 172°
2026-04-24 13:22 -37.68370 144.84517 345 ft 17 kts 130°
2026-04-24 13:22 -37.68393 144.84648 345 ft 14 kts 93°
2026-04-24 13:23 -37.68400 144.84779 346 ft 17 kts 95°
2026-04-24 13:23 -37.68407 144.84894 346 ft 14 kts 95°
2026-04-24 13:23 -37.68415 144.85042 348 ft 20 kts 94°
2026-04-24 13:23 -37.68445 144.85198 351 ft 18 kts 127°
2026-04-24 13:24 -37.68513 144.85303 353 ft 13 kts 134°
2026-04-24 13:24 -37.68603 144.85355 353 ft 18 kts 167°
2026-04-24 13:24 -37.68743 144.85378 356 ft 15 kts 174°
2026-04-24 13:24 -37.68831 144.85390 347 ft 3 kts 173°
2026-04-24 13:25 -37.68838 144.85391 351 ft 2 kts 174°
2026-04-24 13:25 -37.68899 144.85368 346 ft 14 kts 184°
2026-04-24 13:25 -37.68911 144.85368 351 ft 0 kts 180°